• In Austria
  • List of Countries
  • For 7 days
  • Water Temperature
  • Satellite Maps
  • Weather Map
  • News
  • Weather Widgets
  • user-avatar
    Login

    Hourly Weather Chysten'ke

    Today, 18 June, Monday

    Time Temperature Precipitation Wind Pressure Humidity
    00:00 +19°C° 0 mm 4 mps 730 mmHg 87%
    01:00 +18°C° 0 mm 4 mps 730 mmHg 88%
    02:00 +18°C° 0 mm 4 mps 729 mmHg 89%
    03:00 +18°C° 0 mm 4 mps 729 mmHg 89%
    04:00 +18°C° 0 mm 4 mps 729 mmHg 89%
    05:00 +18°C° 0 mm 4 mps 729 mmHg 89%
    06:00 +20°C° 0 mm 5 mps 730 mmHg 79%
    07:00 +22°C° 0 mm 6 mps 730 mmHg 68%
    08:00 +23°C° 0 mm 7 mps 730 mmHg 58%
    09:00 +24°C° 0 mm 7 mps 730 mmHg 54%
    10:00 +26°C° 0 mm 7 mps 730 mmHg 49%
    11:00 +27°C° 0 mm 8 mps 730 mmHg 45%
    12:00 +27°C° 0 mm 7 mps 730 mmHg 46%
    13:00 +28°C° 0 mm 7 mps 730 mmHg 46%
    14:00 +28°C° 0 mm 7 mps 730 mmHg 46%
    15:00 +27°C° 0 mm 7 mps 730 mmHg 49%
    16:00 +27°C° 0 mm 6 mps 730 mmHg 52%
    17:00 +26°C° 0 mm 6 mps 730 mmHg 54%
    18:00 +25°C° 0.1 mm 5 mps 730 mmHg 59%
    19:00 +22°C° 0.1 mm 5 mps 730 mmHg 65%
    20:00 +21°C° 0.1 mm 4 mps 730 mmHg 70%
    21:00 +20°C° 0 mm 4 mps 731 mmHg 72%
    22:00 +20°C° 0 mm 4 mps 731 mmHg 73%
    23:00 +19°C° 0 mm 4 mps 731 mmHg 75%

    Tomorrow, 19 June, Tuesday

    Time Temperature Precipitation Wind Pressure Humidity
    00:00 +19°C° 0 mm 4 mps 731 mmHg 74%
    01:00 +19°C° 0 mm 4 mps 731 mmHg 74%
    02:00 +18°C° 0 mm 4 mps 731 mmHg 74%
    03:00 +18°C° 0 mm 4 mps 732 mmHg 75%
    04:00 +18°C° 0 mm 4 mps 732 mmHg 76%
    05:00 +17°C° 0 mm 5 mps 732 mmHg 78%
    06:00 +21°C° 0 mm 5 mps 732 mmHg 67%
    07:00 +23°C° 0 mm 6 mps 733 mmHg 57%
    08:00 +26°C° 0 mm 7 mps 733 mmHg 47%
    09:00 +27°C° 0 mm 7 mps 733 mmHg 43%
    10:00 +28°C° 0 mm 7 mps 734 mmHg 39%
    11:00 +29°C° 0 mm 7 mps 734 mmHg 36%
    12:00 +29°C° 0 mm 6 mps 734 mmHg 35%
    13:00 +29°C° 0 mm 6 mps 734 mmHg 34%
    14:00 +29°C° 0 mm 6 mps 734 mmHg 34%
    15:00 +29°C° 0 mm 6 mps 734 mmHg 35%
    16:00 +28°C° 0 mm 6 mps 734 mmHg 36%
    17:00 +27°C° 0 mm 5 mps 734 mmHg 37%
    18:00 +25°C° 0 mm 5 mps 734 mmHg 42%
    19:00 +22°C° 0 mm 4 mps 734 mmHg 48%
    20:00 +20°C° 0 mm 4 mps 734 mmHg 53%
    21:00 +20°C° 0 mm 4 mps 734 mmHg 53%
    22:00 +19°C° 0 mm 4 mps 734 mmHg 54%
    23:00 +19°C° 0 mm 4 mps 734 mmHg 55%

    Day after tomorrow, 20 June, Wednesday

    Time Temperature Precipitation Wind Pressure Humidity
    00:00 +19°C° 0 mm 4 mps 734 mmHg 56%
    01:00 +18°C° 0 mm 4 mps 735 mmHg 57%
    02:00 +18°C° 0 mm 4 mps 735 mmHg 58%
    03:00 +18°C° 0 mm 4 mps 735 mmHg 60%
    04:00 +18°C° 0 mm 4 mps 735 mmHg 63%
    05:00 +18°C° 0 mm 4 mps 735 mmHg 65%
    06:00 +21°C° 0 mm 4 mps 735 mmHg 59%
    07:00 +23°C° 0 mm 4 mps 736 mmHg 53%
    08:00 +27°C° 0 mm 5 mps 736 mmHg 48%
    09:00 +28°C° 0 mm 5 mps 736 mmHg 44%
    10:00 +29°C° 0 mm 5 mps 736 mmHg 40%
    11:00 +30°C° 0 mm 5 mps 736 mmHg 35%
    12:00 +30°C° 0 mm 5 mps 736 mmHg 35%
    13:00 +30°C° 0 mm 5 mps 736 mmHg 35%
    14:00 +30°C° 0 mm 5 mps 736 mmHg 35%
    15:00 +30°C° 0 mm 5 mps 736 mmHg 37%
    16:00 +29°C° 0 mm 5 mps 736 mmHg 39%
    17:00 +28°C° 0 mm 5 mps 736 mmHg 41%
    18:00 +26°C° 0 mm 4 mps 736 mmHg 46%
    19:00 +25°C° 0 mm 4 mps 736 mmHg 51%
    20:00 +22°C° 0 mm 3 mps 736 mmHg 56%
    21:00 +21°C° 0 mm 3 mps 736 mmHg 57%
    22:00 +20°C° 0 mm 3 mps 736 mmHg 58%
    23:00 +20°C° 0 mm 3 mps 736 mmHg 58%

    21 June, Thursday

    Time Temperature Precipitation Wind Pressure Humidity
    00:00 +19°C° 0 mm 3 mps 736 mmHg 58%
    01:00 +19°C° 0 mm 3 mps 735 mmHg 57%
    02:00 +19°C° 0 mm 3 mps 735 mmHg 56%
    03:00 +19°C° 0 mm 3 mps 735 mmHg 59%
    04:00 +19°C° 0 mm 3 mps 735 mmHg 61%
    05:00 +19°C° 0 mm 4 mps 735 mmHg 63%
    06:00 +22°C° 0 mm 4 mps 735 mmHg 58%
    07:00 +25°C° 0 mm 4 mps 735 mmHg 54%
    08:00 +28°C° 0 mm 5 mps 735 mmHg 49%
    09:00 +29°C° 0 mm 5 mps 735 mmHg 44%
    10:00 +30°C° 0 mm 5 mps 735 mmHg 40%
    11:00 +32°C° 0 mm 5 mps 735 mmHg 35%
    12:00 +33°C° 0 mm 5 mps 735 mmHg 34%
    13:00 +33°C° 0 mm 5 mps 734 mmHg 33%
    14:00 +33°C° 0 mm 5 mps 734 mmHg 33%
    15:00 +32°C° 0 mm 5 mps 734 mmHg 35%
    16:00 +32°C° 0 mm 5 mps 733 mmHg 37%
    17:00 +30°C° 0 mm 5 mps 733 mmHg 39%
    18:00 +28°C° 0 mm 4 mps 733 mmHg 45%
    19:00 +26°C° 0 mm 4 mps 733 mmHg 52%
    20:00 +24°C° 0 mm 3 mps 733 mmHg 58%
    21:00 +22°C° 0 mm 3 mps 733 mmHg 60%
    22:00 +22°C° 0 mm 3 mps 732 mmHg 62%
    23:00 +21°C° 0 mm 3 mps 732 mmHg 64%

    22 June, Friday

    Time Temperature Precipitation Wind Pressure Humidity
    00:00 +21°C° 0 mm 3 mps 732 mmHg 66%
    01:00 +21°C° 0 mm 3 mps 731 mmHg 68%
    02:00 +21°C° 0 mm 3 mps 731 mmHg 69%
    03:00 +21°C° 0 mm 3 mps 731 mmHg 71%
    04:00 +21°C° 0 mm 3 mps 730 mmHg 72%
    05:00 +21°C° 0 mm 3 mps 730 mmHg 74%
    06:00 +24°C° 0 mm 3 mps 730 mmHg 66%
    07:00 +26°C° 0 mm 3 mps 730 mmHg 58%
    08:00 +29°C° 0 mm 4 mps 730 mmHg 49%
    09:00 +30°C° 0 mm 4 mps 730 mmHg 46%
    10:00 +32°C° 0 mm 4 mps 730 mmHg 42%
    11:00 +33°C° 0 mm 3 mps 730 mmHg 39%
    12:00 +33°C° 0 mm 3 mps 730 mmHg 38%
    13:00 +33°C° 0 mm 3 mps 729 mmHg 38%
    14:00 +34°C° 0 mm 3 mps 729 mmHg 38%
    15:00 +33°C° 0 mm 3 mps 729 mmHg 41%
    16:00 +31°C° 0 mm 3 mps 729 mmHg 44%
    17:00 +31°C° 0 mm 3 mps 729 mmHg 47%
    18:00 +29°C° 0.2 mm 3 mps 729 mmHg 55%
    19:00 +27°C° 0.2 mm 3 mps 729 mmHg 64%
    20:00 +25°C° 0.2 mm 3 mps 729 mmHg 73%
    21:00 +24°C° 0.3 mm 3 mps 729 mmHg 75%
    22:00 +24°C° 0.3 mm 3 mps 729 mmHg 78%
    23:00 +22°C° 0.3 mm 3 mps 729 mmHg 80%

    23 June, Saturday

    Time Temperature Precipitation Wind Pressure Humidity
    00:00 +22°C° 0.4 mm 3 mps 729 mmHg 80%
    01:00 +23°C° 0.4 mm 2 mps 728 mmHg 81%
    02:00 +23°C° 0.4 mm 2 mps 728 mmHg 81%
    03:00 +22°C° 0.1 mm 3 mps 728 mmHg 82%
    04:00 +22°C° 0.1 mm 3 mps 729 mmHg 82%
    05:00 +22°C° 0.1 mm 3 mps 729 mmHg 83%
    06:00 +25°C° 0.1 mm 4 mps 729 mmHg 75%
    07:00 +26°C° 0.1 mm 4 mps 729 mmHg 67%
    08:00 +28°C° 0.1 mm 5 mps 729 mmHg 60%
    09:00 +29°C° 0 mm 5 mps 730 mmHg 54%
    10:00 +30°C° 0 mm 5 mps 730 mmHg 49%
    11:00 +33°C° 0 mm 5 mps 730 mmHg 43%
    12:00 +33°C° 0.1 mm 5 mps 730 mmHg 43%
    13:00 +33°C° 0.1 mm 6 mps 730 mmHg 42%
    14:00 +33°C° 0.1 mm 6 mps 730 mmHg 41%
    15:00 +32°C° 0 mm 6 mps 730 mmHg 44%
    16:00 +30°C° 0 mm 5 mps 730 mmHg 46%
    17:00 +30°C° 0 mm 5 mps 730 mmHg 49%
    18:00 +28°C° 0.1 mm 5 mps 730 mmHg 57%
    19:00 +26°C° 0.1 mm 4 mps 731 mmHg 65%
    20:00 +23°C° 0.1 mm 4 mps 731 mmHg 73%
    21:00 +23°C° 0.1 mm 4 mps 731 mmHg 77%
    22:00 +22°C° 0.1 mm 4 mps 732 mmHg 82%
    23:00 +21°C° 0.1 mm 4 mps 732 mmHg 86%
    Show more